| time (UTC) | temp C | wind direction | speed KPH | gust KPH | rain 1hr cm | rain 24hr cm | rain mn cm | humidity % | barometer mb |
| 20260510043017 | 21 | 23 | 8.0 | 20.9 | 0.00 | 0.00 | 0.00 | 44 | 1026.6 |
| 20260510040017 | 21 | 0 | 8.0 | 19.3 | 0.00 | 0.00 | 0.00 | 46 | 1027.1 |
| 20260510033017 | 20 | 23 | 8.0 | 24.1 | 0.00 | 0.00 | 0.00 | 48 | 1027.8 |
| 20260510030017 | 19 | 23 | 8.0 | 20.9 | 0.00 | 0.00 | 0.00 | 51 | 1028.2 |
| 20260510023037 | 18 | 23 | 9.7 | 19.3 | 0.00 | 0.00 | 0.00 | 54 | 1028.4 |
| 20260510020017 | 17 | 0 | 9.7 | 24.1 | 0.00 | 0.00 | 0.00 | 57 | 1028.9 |
| 20260510013017 | 15 | 225 | 3.2 | 12.9 | 0.00 | 0.00 | 0.00 | 69 | 1028.9 |
| 20260510010017 | 11 | 203 | 3.2 | 6.4 | 0.00 | 0.00 | 0.00 | 78 | 1028.8 |
| 20260510003038 | 10 | 203 | 1.6 | 6.4 | 0.00 | 0.00 | 0.00 | 81 | 1028.8 |
| 20260510000017 | 7 | 0 | 1.6 | 6.4 | 0.00 | 0.00 | 0.00 | 85 | 1028.7 |
| 20260509233017 | 6 | 0 | 3.2 | 9.7 | 0.00 | 0.00 | 0.00 | 85 | 1028.5 |
| 20260509230017 | 7 | 0 | 3.2 | 8.0 | 0.00 | 0.00 | 0.00 | 81 | 1028.6 |
| 20260509223017 | 7 | 0 | 3.2 | 6.4 | 0.00 | 0.00 | 0.00 | 80 | 1028.3 |
| 20260509220017 | 8 | 0 | 3.2 | 6.4 | 0.00 | 0.00 | 0.00 | 81 | 1028.1 |
| 20260509213016 | 8 | 0 | 3.2 | 6.4 | 0.00 | 0.00 | 0.00 | 79 | 1028.0 |
| 20260509210016 | 9 | 0 | 1.6 | 6.4 | 0.00 | 0.00 | 0.00 | 78 | 1027.8 |
| 20260509203016 | 8 | 0 | 1.6 | 4.8 | 0.00 | 0.00 | 0.00 | 82 | 1027.7 |
| 20260509200017 | 7 | 0 | 1.6 | 4.8 | 0.00 | 0.00 | 0.00 | 80 | 1027.4 |
| 20260509193106 | 7 | 0 | 1.6 | 4.8 | 0.00 | 0.00 | 0.00 | 78 | 1027.5 |
| 20260509190016 | 7 | 0 | 1.6 | 6.4 | 0.00 | 0.00 | 0.00 | 76 | 1027.6 |
| 20260509183016 | 7 | 0 | 1.6 | 4.8 | 0.00 | 0.00 | 0.00 | 79 | 1027.6 |
| 20260509180016 | 7 | 0 | 1.6 | 3.2 | 0.00 | 0.00 | 0.00 | 75 | 1027.4 |
| 20260509173016 | 7 | 0 | 3.2 | 6.4 | 0.00 | 0.00 | 0.00 | 75 | 1027.4 |
| 20260509170016 | 7 | 0 | 1.6 | 6.4 | 0.00 | 0.00 | 0.00 | 72 | 1027.6 |
| 20260509163016 | 8 | 0 | 3.2 | 9.7 | 0.00 | 0.00 | 0.00 | 73 | 1027.8 |
| 20260509160017 | 8 | 0 | 1.6 | 8.0 | 0.00 | 0.00 | 0.00 | 72 | 1027.5 |
| 20260509153016 | 8 | 0.0 | 3.2 | 0.00 | 0.00 | 0.00 | 70 | 1027.3 | |
| 20260509150016 | 9 | 0.0 | 3.2 | 0.00 | 0.00 | 0.00 | 66 | 1027.4 | |
| 20260509143058 | 11 | 0 | 1.6 | 6.4 | 0.00 | 0.00 | 0.00 | 63 | 1027.7 |
| 20260509140016 | 11 | 0 | 1.6 | 6.4 | 0.00 | 0.00 | 0.00 | 63 | 1027.7 |
| 20260509133017 | 12 | 0 | 1.6 | 6.4 | 0.00 | 0.00 | 0.00 | 59 | 1027.7 |
| 20260509130016 | 12 | 0.0 | 3.2 | 0.00 | 0.00 | 0.00 | 62 | 1027.4 | |
| 20260509123017 | 12 | 113 | 1.6 | 4.8 | 0.00 | 0.00 | 0.00 | 58 | 1027.2 |
| 20260509120016 | 13 | 113 | 1.6 | 6.4 | 0.00 | 0.00 | 0.00 | 57 | 1027.3 |
| 20260509113016 | 14 | 113 | 3.2 | 6.4 | 0.00 | 0.00 | 0.00 | 54 | 1027.3 |
| 20260509110016 | 13 | 0.0 | 3.2 | 0.00 | 0.00 | 0.00 | 55 | 1027.2 | |
| 20260509103018 | 15 | 113 | 1.6 | 6.4 | 0.00 | 0.00 | 0.00 | 50 | 1027.0 |
| 20260509100017 | 16 | 113 | 3.2 | 4.8 | 0.00 | 0.00 | 0.00 | 47 | 1026.9 |
| 20260509093017 | 18 | 113 | 4.8 | 14.5 | 0.00 | 0.00 | 0.00 | 41 | 1026.8 |
| 20260509090017 | 20 | 113 | 12.9 | 20.9 | 0.00 | 0.00 | 0.00 | 37 | 1026.7 |
| 20260509083017 | 21 | 113 | 14.5 | 25.7 | 0.00 | 0.00 | 0.00 | 36 | 1026.4 |
| 20260509080018 | 21 | 113 | 12.9 | 27.4 | 0.00 | 0.00 | 0.00 | 34 | 1026.3 |
| 20260509073017 | 21 | 113 | 12.9 | 27.4 | 0.00 | 0.00 | 0.00 | 34 | 1026.2 |
| 20260509070038 | 22 | 113 | 9.7 | 24.1 | 0.00 | 0.00 | 0.00 | 35 | 1026.5 |
| 20260509063017 | 21 | 90 | 9.7 | 22.5 | 0.00 | 0.00 | 0.00 | 36 | 1026.5 |
| 20260509060017 | 21 | 68 | 8.0 | 25.7 | 0.00 | 0.00 | 0.00 | 35 | 1026.7 |
| 20260509053017 | 21 | 90 | 8.0 | 22.5 | 0.00 | 0.00 | 0.00 | 37 | 1027.1 |
| 20260509050038 | 20 | 90 | 8.0 | 16.1 | 0.00 | 0.00 | 0.00 | 41 | 1027.5 |